Regional Weather Roundup
Issued by NWS San Angelo, TX

Home | Current Version | Previous Version | Text Only | Print | Product List | Glossary On
Versions: 1 2 3 4 5 6 7 8 9 10 11 12 13 14 15 16 17 18 19 20 21 22 23 24 25 26 27 28 29 30 31 32 33 34 35 36 37 38 39 40 41 42 43 44 45 46 47 48 49 50
000
ASUS44 KSJT 270910
RWRSJT
WEST CENTRAL TEXAS REGIONAL WEATHER ROUNDUP
NATIONAL WEATHER SERVICE SAN ANGELO TX
300 AM CST TUE JAN 27 2015

NOTE: "FAIR" INDICATES FEW OR NO CLOUDS BELOW 12,000 FEET WITH NO
SIGNIFICANT WEATHER AND/OR OBSTRUCTIONS TO VISIBILITY.

TXZ049-054-064>066-071>073-076>078-098-099-113-114-127-128-139-140-
154-155-168>170-271000
...LOCATIONS ACROSS WEST CENTRAL TEXAS...

CITY           SKY/WX    TMP DP  RH WIND       PRES   REMARKS
SAN ANGELO     PTCLDY    38  34  85 SW7       30.20F WCI  33
ABILENE        PTCLDY    45  34  65 S7        30.17F
DYESS AFB      PTCLDY    53  36  51 SW5       30.16S
JUNCTION       CLEAR     36  32  85 CALM      30.21S
SWEETWATER     MOCLDY    48  34  58 SW12      30.22S
BROWNWOOD      MOCLDY    39  36  87 CALM      30.18S
COLEMAN        MOSUNNY   53  38  55 W10       30.17S
SONORA         CLEAR     32  30  93 N3        30.25F
OZONA          FAIR      34  32  93 CALM      30.25R
BRADY          CLEAR     46  36  66 W7        30.17F
$$

TEXAS PANHANDLE/OKLAHOMA PANHANDLE

CITY           SKY/WX    TMP DP  RH WIND       PRES   REMARKS
AMARILLO       PTCLDY    45  34  65 W5        30.23S
BORGER         CLEAR     45  33  63 W8        30.21S
CANADIAN       CLEAR     34  32  93 CALM      30.17F
DALHART        CLEAR     41  30  65 W9        30.24S WCI  35
DUMAS          SUNNY     39  31  73 W13       30.22S WCI  31
GUYMON         NOT AVBL
HEREFORD       SUNNY     36  33  88 W3        30.25S
PAMPA          SUNNY     41  33  71 W10       30.21S WCI  35
PERRYTON         N/A     39  32  75 W6        30.17S WCI  35
$$

SOUTHERN PANHANDLE/SOUTH PLAINS/ROLLING PLAINS

CITY           SKY/WX    TMP DP  RH WIND       PRES   REMARKS
LUBBOCK        PTCLDY    38  33  82 NW7       30.21S WCI  33
SNYDER         MOCLDY   N/A N/A N/A SW7       30.20F
CHILDRESS      CLEAR     47  35  63 NW6       30.16S
SEMINOLE       MOSUNNY   39  32  75 NW9       30.25S WCI  33
$$

PERMIAN BASIN

CITY           SKY/WX    TMP DP  RH WIND       PRES   REMARKS
MIDLAND        CLEAR     39  33  79 SW6       30.22S WCI  35
ODESSA           N/A     42  33  70 NW6       30.23F WCI  38
WINK           PTCLDY    36  29  75 N6        30.23S WCI  31
$$

FAR WEST/SOUTHWEST MOUNTAINS/TRANS PECOS

CITY           SKY/WX    TMP DP  RH WIND       PRES   REMARKS
ALPINE         MOSUNNY   42  31  65 SW5       30.35S WCI  39
DRYDEN           N/A     50  37  61 W8        30.21S
EL PASO        LGT RAIN  49  35  58 N5        30.28F
FORT STOCKTON  CLEAR     47  37  68 SW12      30.24S
GUADALUPE PASS NOT AVBL
MARFA          MOCLDY    37  32  81 NW5       30.32S WCI  34
PECOS          MOSUNNY   41  36  83 W7        30.26S WCI  36
$$

DALLAS/FORT WORTH METROPLEX

CITY           SKY/WX    TMP DP  RH WIND       PRES   REMARKS
DFW AIRPORT    PTCLDY    50  36  58 W3        30.08S
FTW MEACHAM    CLEAR     54  37  52 CALM      30.09R
DAL-EXECUTIVE  CLEAR     57  36  45 W8        30.07S
GRAND PRAIRIE  CLEAR     49  39  69 CALM      30.10S
ADDISON        CLEAR     51  38  60 CALM      30.10S
MESQUITE       SUNNY     43  37  79 CALM      30.08S
LANCASTER      SUNNY     52  35  53 W7        30.09R
$$

NORTH CENTRAL TEXAS

CITY           SKY/WX    TMP DP  RH WIND       PRES   REMARKS
SHRMAN/DENISON SUNNY     46  39  77 SW3       30.09R
GAINESVILLE    CLEAR     45  37  73 CALM      30.11R
BRIDGEPORT     SUNNY     51  38  61 SW6       30.12S
DENTON         CLEAR     48  37  65 NW5       30.08S
WAXAHACHIE     SUNNY     53  39  58 W8        30.10S
GRANBURY       MOSUNNY   42  37  79 CALM      30.13S
$$

WESTERN NORTH TEXAS

CITY           SKY/WX    TMP DP  RH WIND       PRES   REMARKS
WICHITA FALLS  CLEAR     50  36  58 NW6       30.10S
VERNON         SUNNY     47  32  56 NW6       30.13S
BRECKENRIDGE   MOSUNNY   51  35  53 SW7       30.14F
COMANCHE       MOCLDY    58  35  42 W10       30.15S
$$

CENTRAL AND SOUTH CENTRAL TEXAS

CITY           SKY/WX    TMP DP  RH WIND       PRES   REMARKS
AUSTIN/BERGSTM PTCLDY    47  37  68 SW6       30.14F
WACO           PTCLDY    43  37  79 S5        30.10F
HILLSBORO      MOSUNNY   46  37  71 CALM      30.10S
TEMPLE         PTCLDY    52  34  50 W7        30.12S
KILLEEN-GRAY   PTCLDY    59  35  40 W15       30.12F
FORT HOOD      PTCLDY    56  36  46 MISG      30.12F
GEORGETOWN     CLEAR     55  36  47 W10       30.13S
LAGO VISTA     NOT AVBL
SAN MARCOS     MOCLDY    50  37  62 SW10      30.15F
NEW BRAUNFELS  PTCLDY    48  39  71 W6        30.15F
RANDOLPH AFB   CLEAR     50  36  57 NW3       30.17F
SAN ANTONIO    MOCLDY    46  38  73 NW6       30.18S
STINSON        PTCLDY    42  38  85 CALM      30.17S
PLEASANTON     NOT AVBL
LA GRANGE      NOT AVBL
GIDDINGS       NOT AVBL
$$

EAST TEXAS

CITY           SKY/WX    TMP DP  RH WIND       PRES   REMARKS
PARIS          CLEAR     50  37  62 NW7       30.07S
CLARKSVILLE    NOT AVBL
TYLER          CLEAR     50  38  63 W3        30.07S
LONGVIEW       CLEAR     44  37  76 CALM      30.06R
PALESTINE      MOSUNNY   43  38  85 CALM      30.10S
NACOGDOCHES    CLEAR     43  36  75 CALM      30.08F
$$

TEXAS HILL COUNTRY AND EDWARDS PLATEAU

CITY           SKY/WX    TMP DP  RH WIND       PRES   REMARKS
LLANO          SUNNY     45  36  70 CALM      30.21F
HORSESHOE BAY  FAIR      45  33  62 CALM      30.17S
KERRVILLE      CLEAR     37  35  90 CALM      30.21S
FREDERICKSBRG  CLEAR     40  34  78 CALM      30.19S
ROCKSPRINGS    NOT AVBL
HONDO          CLEAR     43  36  76 N7        30.20F WCI  39
UVALDE         MOSUNNY   44  38  80 CALM      30.20F
DEL RIO        PTCLDY    46  41  82 NW5       30.20F
$$

SOUTHEAST TEXAS

CITY           SKY/WX    TMP DP  RH WIND       PRES   REMARKS
COLLEGE STN    PTCLDY    50  40  68 W6        30.12F
CALDWELL       NOT AVBL
CROCKETT       MOSUNNY   43  39  87 CALM      30.12F
BRENHAM        NOT AVBL
HUNTSVILLE     PTCLDY    56  39  53 SW8       30.10F
CONROE         CLEAR     40  38  93 CALM      30.12F
HOUSTON BUSH   PTCLDY    53  42  66 W6        30.12F
HOUSTON HOBBY  PTCLDY    51  44  77 SW6       30.13S
PERLAND        CLEAR     50  43  77 SW3       30.15S
WHARTON        NOT AVBL
$$

THE UPPER TEXAS COAST

CITY           SKY/WX    TMP DP  RH WIND       PRES   REMARKS
ORANGE         MOSUNNY   53  44  73 CALM      30.12S
PORT ARTHUR    PTCLDY    47  43  86 W5        30.11S
GALVESTON      CLEAR     53  45  74 SW7       30.15S
ANGLETON       CLEAR     49  41  74 W3        30.15S
BAY CITY       NOT AVBL
$$

TEXAS COASTAL BEND, RIO GRANDE PLAINS DEEP SOUTH TEXAS

CITY           SKY/WX    TMP DP  RH WIND       PRES   REMARKS
VICTORIA       CLEAR     51  39  63 SW6       30.17F
BEEVILLE       FAIR      53  41  63 W3        30.17F
ROCKPORT       PTCLDY    54  40  59 SW7       30.18F
PORT ARANSAS   MOSUNNY   54  46  73 SW6       30.18F
PORT LAVACA    NOT AVBL
CORPUS CHRISTI MOCLDY    49  42  77 SW9       30.19F
KINGSVILLE NAS PTCLDY    55  42  61 W7        30.20F
COTULLA        PTCLDY    50  40  68 N6        30.19F
LAREDO         NOT AVBL
BROWNSVILLE    PTCLDY    53  49  86 S3        30.20F
PORT ISABEL    PTCLDY    53  48  83 SW6       30.20S
HEBBRONVILLE   PTSUNNY   55  40  57 SW6       30.20S
MCALLEN        PTCLDY    52  45  77 CALM      30.21S
WESLACO        PTCLDY    54  43  66 SW5       30.21S
FALFURRIAS     MOSUNNY   48  39  73 CALM      30.19F
EDINBURG       MOSUNNY   53  43  70 CALM      30.21S
$$


USA.gov is the U.S. government's official web portal to all federal, state and local government web resources and services.